Time,TemperatureF,DewpointF,PressureIn,WindDirection,WindDirectionDegrees,WindSpeedMPH,WindSpeedGustMPH,Humidity,HourlyPrecipIn,Conditions,Clouds,dailyrainin,SolarRadiationWatts/m^2,SoftwareType,DateUTC
2013-03-15 00:02:00,50.0,23.0,-100.00,West,260,5.0,10.0,34,0.00,,,0.00,0.000000,,2013-03-15 06:02:00,
2013-03-15 00:12:00,50.0,23.0,-100.00,West,260,5.0,10.0,34,0.00,,,0.00,0.000000,,2013-03-15 06:12:00,
2013-03-15 00:22:00,50.0,23.0,-100.00,West,260,5.0,10.0,34,0.00,,,0.00,0.000000,,2013-03-15 06:22:00,
2013-03-15 00:32:00,50.0,23.0,-100.00,West,260,5.0,10.0,34,0.00,,,0.00,0.000000,,2013-03-15 06:32:00,
2013-03-15 01:02:00,48.0,24.0,-100.00,West,264,5.0,10.0,38,0.00,,,0.00,1.000000,,2013-03-15 07:02:00,
2013-03-15 01:12:00,48.0,24.0,-100.00,West,264,5.0,10.0,38,0.00,,,0.00,1.000000,,2013-03-15 07:12:00,
2013-03-15 01:22:00,48.0,24.0,-100.00,West,264,5.0,10.0,38,0.00,,,0.00,1.000000,,2013-03-15 07:22:00,
2013-03-15 01:32:00,48.0,24.0,-100.00,West,264,5.0,10.0,38,0.00,,,0.00,1.000000,,2013-03-15 07:32:00,
2013-03-15 02:02:00,46.0,23.0,-100.00,West,270,7.0,11.0,40,0.00,,,0.00,1.000000,,2013-03-15 08:02:00,
2013-03-15 02:12:00,46.0,23.0,-100.00,West,270,7.0,11.0,40,0.00,,,0.00,1.000000,,2013-03-15 08:12:00,
2013-03-15 02:23:00,46.0,23.0,-100.00,West,270,7.0,11.0,40,0.00,,,0.00,1.000000,,2013-03-15 08:23:00,
2013-03-15 02:32:00,46.0,23.0,-100.00,West,270,7.0,11.0,40,0.00,,,0.00,1.000000,,2013-03-15 08:32:00,
2013-03-15 02:52:00,45.0,23.0,-100.00,WNW,284,8.0,12.0,41,0.00,,,0.00,0.000000,,2013-03-15 08:52:00,
2013-03-15 03:02:00,45.0,23.0,-100.00,WNW,284,8.0,12.0,41,0.00,,,0.00,0.000000,,2013-03-15 09:02:00,
2013-03-15 03:12:00,45.0,23.0,-100.00,WNW,284,8.0,12.0,41,0.00,,,0.00,0.000000,,2013-03-15 09:12:00,
2013-03-15 03:22:00,45.0,23.0,-100.00,WNW,284,8.0,12.0,41,0.00,,,0.00,0.000000,,2013-03-15 09:22:00,
2013-03-15 03:33:00,45.0,23.0,-100.00,WNW,284,8.0,12.0,41,0.00,,,0.00,0.000000,,2013-03-15 09:33:00,
2013-03-15 04:03:00,44.0,22.0,-100.00,WNW,285,8.0,13.0,42,0.00,,,0.00,1.000000,,2013-03-15 10:03:00,
2013-03-15 04:12:00,44.0,22.0,-100.00,WNW,285,8.0,13.0,42,0.00,,,0.00,1.000000,,2013-03-15 10:12:00,
2013-03-15 04:23:00,44.0,22.0,-100.00,WNW,285,8.0,13.0,42,0.00,,,0.00,1.000000,,2013-03-15 10:23:00,
2013-03-15 04:33:00,44.0,22.0,-100.00,WNW,285,8.0,13.0,42,0.00,,,0.00,1.000000,,2013-03-15 10:33:00,
2013-03-15 05:03:00,44.0,23.0,-100.00,West,281,4.0,11.0,43,0.00,,,0.00,1.000000,,2013-03-15 11:03:00,
2013-03-15 05:12:00,44.0,23.0,-100.00,West,281,4.0,11.0,43,0.00,,,0.00,1.000000,,2013-03-15 11:12:00,
2013-03-15 05:22:00,44.0,23.0,-100.00,West,281,4.0,11.0,43,0.00,,,0.00,1.000000,,2013-03-15 11:22:00,
2013-03-15 05:32:00,44.0,23.0,-100.00,West,281,4.0,11.0,43,0.00,,,0.00,1.000000,,2013-03-15 11:32:00,
2013-03-15 06:02:00,42.0,23.0,-100.00,West,271,7.0,12.0,46,0.00,,,0.00,0.000000,,2013-03-15 12:02:00,
2013-03-15 06:12:00,42.0,23.0,-100.00,West,271,7.0,12.0,46,0.00,,,0.00,0.000000,,2013-03-15 12:12:00,
2013-03-15 06:23:00,42.0,23.0,-100.00,West,271,7.0,12.0,46,0.00,,,0.00,0.000000,,2013-03-15 12:23:00,
2013-03-15 06:32:00,42.0,23.0,-100.00,West,271,7.0,12.0,46,0.00,,,0.00,0.000000,,2013-03-15 12:32:00,
2013-03-15 07:02:00,40.0,23.0,-100.00,WNW,294,3.0,10.0,50,0.00,,,0.00,0.000000,,2013-03-15 13:02:00,
2013-03-15 07:12:00,40.0,23.0,-100.00,WNW,294,3.0,10.0,50,0.00,,,0.00,0.000000,,2013-03-15 13:12:00,
2013-03-15 07:22:00,40.0,23.0,-100.00,WNW,294,3.0,10.0,50,0.00,,,0.00,0.000000,,2013-03-15 13:22:00,
2013-03-15 07:32:00,40.0,23.0,-100.00,WNW,294,3.0,10.0,50,0.00,,,0.00,0.000000,,2013-03-15 13:32:00,
2013-03-15 08:02:00,38.0,23.0,-100.00,SW,228,0.0,7.0,55,0.00,,,0.00,3.000000,,2013-03-15 14:02:00,
2013-03-15 08:12:00,38.0,23.0,-100.00,SW,228,0.0,7.0,55,0.00,,,0.00,3.000000,,2013-03-15 14:12:00,
2013-03-15 08:22:00,38.0,23.0,-100.00,SW,228,0.0,7.0,55,0.00,,,0.00,3.000000,,2013-03-15 14:22:00,
2013-03-15 08:32:00,38.0,23.0,-100.00,SW,228,0.0,7.0,55,0.00,,,0.00,3.000000,,2013-03-15 14:32:00,
2013-03-15 09:02:00,46.0,24.0,-100.00,WNW,283,6.0,8.0,41,0.00,,,0.00,66.000000,,2013-03-15 15:02:00,
2013-03-15 09:13:00,46.0,24.0,-100.00,WNW,283,6.0,8.0,41,0.00,,,0.00,66.000000,,2013-03-15 15:13:00,
2013-03-15 09:23:00,46.0,24.0,-100.00,WNW,283,6.0,8.0,41,0.00,,,0.00,66.000000,,2013-03-15 15:23:00,
2013-03-15 09:33:00,46.0,24.0,-100.00,WNW,283,6.0,8.0,41,0.00,,,0.00,66.000000,,2013-03-15 15:33:00,
2013-03-15 10:03:00,58.0,23.0,-100.00,WNW,300,4.0,10.0,26,0.00,,,0.00,283.000000,,2013-03-15 16:03:00,
2013-03-15 10:12:00,58.0,23.0,-100.00,WNW,300,4.0,10.0,26,0.00,,,0.00,283.000000,,2013-03-15 16:12:00,
2013-03-15 10:22:00,58.0,23.0,-100.00,WNW,300,4.0,10.0,26,0.00,,,0.00,283.000000,,2013-03-15 16:22:00,
2013-03-15 10:32:00,58.0,23.0,-100.00,WNW,300,4.0,10.0,26,0.00,,,0.00,283.000000,,2013-03-15 16:32:00,
2013-03-15 11:02:00,65.0,19.0,-100.00,NNW,346,10.0,20.0,17,0.00,,,0.00,495.000000,,2013-03-15 17:02:00,
2013-03-15 11:12:00,65.0,19.0,-100.00,NNW,346,10.0,20.0,17,0.00,,,0.00,495.000000,,2013-03-15 17:12:00,
2013-03-15 11:22:00,65.0,19.0,-100.00,NNW,346,10.0,20.0,17,0.00,,,0.00,495.000000,,2013-03-15 17:22:00,
2013-03-15 11:32:00,65.0,19.0,-100.00,NNW,346,10.0,20.0,17,0.00,,,0.00,495.000000,,2013-03-15 17:32:00,
2013-03-15 12:02:00,64.0,18.0,-100.00,NNW,345,9.0,21.0,17,0.00,,,0.00,600.000000,,2013-03-15 18:02:00,
2013-03-15 12:12:00,64.0,18.0,-100.00,NNW,345,9.0,21.0,17,0.00,,,0.00,600.000000,,2013-03-15 18:12:00,
2013-03-15 12:22:00,64.0,18.0,-100.00,NNW,345,9.0,21.0,17,0.00,,,0.00,600.000000,,2013-03-15 18:22:00,
2013-03-15 12:32:00,64.0,18.0,-100.00,NNW,345,9.0,21.0,17,0.00,,,0.00,600.000000,,2013-03-15 18:32:00,
2013-03-15 13:02:00,62.0,18.0,-100.00,NNW,336,8.0,25.0,18,0.00,,,0.00,522.000000,,2013-03-15 19:02:00,
2013-03-15 13:12:00,62.0,18.0,-100.00,NNW,336,8.0,25.0,18,0.00,,,0.00,522.000000,,2013-03-15 19:12:00,
2013-03-15 13:22:00,62.0,18.0,-100.00,NNW,336,8.0,25.0,18,0.00,,,0.00,522.000000,,2013-03-15 19:22:00,
2013-03-15 13:32:00,62.0,18.0,-100.00,NNW,336,8.0,25.0,18,0.00,,,0.00,522.000000,,2013-03-15 19:32:00,
2013-03-15 14:02:00,62.0,18.0,-100.00,NNW,341,11.0,26.0,18,0.00,,,-99.99,490.000000,,2013-03-15 20:02:00,
2013-03-15 14:12:00,62.0,18.0,-100.00,NNW,341,11.0,26.0,18,0.00,,,-99.99,490.000000,,2013-03-15 20:12:00,
2013-03-15 14:22:00,62.0,18.0,-100.00,NNW,341,11.0,26.0,18,0.00,,,-99.99,490.000000,,2013-03-15 20:22:00,
2013-03-15 14:32:00,62.0,18.0,-100.00,NNW,341,11.0,26.0,18,0.00,,,-99.99,490.000000,,2013-03-15 20:32:00,
2013-03-15 15:02:00,66.0,20.0,-100.00,NNW,337,8.0,24.0,17,0.00,,,0.00,729.000000,,2013-03-15 21:02:00,
2013-03-15 15:12:00,66.0,20.0,-100.00,NNW,337,8.0,24.0,17,0.00,,,0.00,729.000000,,2013-03-15 21:12:00,
2013-03-15 15:22:00,66.0,20.0,-100.00,NNW,337,8.0,24.0,17,0.00,,,0.00,729.000000,,2013-03-15 21:22:00,
2013-03-15 15:33:00,66.0,20.0,-100.00,NNW,337,8.0,24.0,17,0.00,,,0.00,729.000000,,2013-03-15 21:33:00,
2013-03-15 16:03:00,64.0,21.0,-100.00,NNW,331,10.0,25.0,19,0.00,,,0.00,628.000000,,2013-03-15 22:03:00,
2013-03-15 16:13:00,64.0,21.0,-100.00,NNW,331,10.0,25.0,19,0.00,,,0.00,628.000000,,2013-03-15 22:13:00,
2013-03-15 16:22:00,64.0,21.0,-100.00,NNW,331,10.0,25.0,19,0.00,,,0.00,628.000000,,2013-03-15 22:22:00,
2013-03-15 16:32:00,64.0,21.0,-100.00,NNW,331,10.0,25.0,19,0.00,,,0.00,628.000000,,2013-03-15 22:32:00,
2013-03-15 17:02:00,60.0,21.0,-100.00,NW,326,11.0,21.0,22,0.00,,,0.00,182.000000,,2013-03-15 23:02:00,
2013-03-15 17:12:00,60.0,21.0,-100.00,NW,326,11.0,21.0,22,0.00,,,0.00,182.000000,,2013-03-15 23:12:00,
2013-03-15 17:22:00,60.0,21.0,-100.00,NW,326,11.0,21.0,22,0.00,,,0.00,182.000000,,2013-03-15 23:22:00,
2013-03-15 17:32:00,60.0,21.0,-100.00,NW,326,11.0,21.0,22,0.00,,,0.00,182.000000,,2013-03-15 23:32:00,
2013-03-15 18:02:00,55.0,23.0,-100.00,NNW,345,10.0,24.0,29,0.00,,,0.00,139.000000,,2013-03-16 00:02:00,
2013-03-15 18:12:00,55.0,23.0,-100.00,NNW,345,10.0,24.0,29,0.00,,,0.00,139.000000,,2013-03-16 00:12:00,
2013-03-15 18:22:00,55.0,23.0,-100.00,NNW,345,10.0,24.0,29,0.00,,,0.00,139.000000,,2013-03-16 00:22:00,
2013-03-15 18:32:00,55.0,23.0,-100.00,NNW,345,10.0,24.0,29,0.00,,,0.00,139.000000,,2013-03-16 00:32:00,
2013-03-15 19:02:00,54.0,24.0,-100.00,NW,318,6.0,19.0,31,0.00,,,0.00,76.000000,,2013-03-16 01:02:00,
2013-03-15 19:12:00,54.0,24.0,-100.00,NW,318,6.0,19.0,31,0.00,,,0.00,76.000000,,2013-03-16 01:12:00,
2013-03-15 19:21:00,54.0,24.0,-100.00,NW,318,6.0,19.0,31,0.00,,,0.00,76.000000,,2013-03-16 01:21:00,
2013-03-15 19:32:00,54.0,24.0,-100.00,NW,318,6.0,19.0,31,0.00,,,0.00,76.000000,,2013-03-16 01:32:00,
2013-03-15 20:02:00,50.0,25.0,-100.00,NNW,347,8.0,19.0,37,0.00,,,0.00,5.000000,,2013-03-16 02:02:00,
2013-03-15 20:12:00,50.0,25.0,-100.00,NNW,347,8.0,19.0,37,0.00,,,0.00,5.000000,,2013-03-16 02:12:00,
2013-03-15 20:23:00,50.0,25.0,-100.00,NNW,347,8.0,19.0,37,0.00,,,0.00,5.000000,,2013-03-16 02:23:00,
2013-03-15 20:32:00,50.0,25.0,-100.00,NNW,347,8.0,19.0,37,0.00,,,0.00,5.000000,,2013-03-16 02:32:00,
2013-03-15 21:02:00,45.0,27.0,-100.00,North,359,9.0,23.0,48,0.00,,,0.00,0.000000,,2013-03-16 03:02:00,
2013-03-15 21:12:00,45.0,27.0,-100.00,North,359,9.0,23.0,48,0.00,,,0.00,0.000000,,2013-03-16 03:12:00,
2013-03-15 21:22:00,45.0,27.0,-100.00,North,359,9.0,23.0,48,0.00,,,0.00,0.000000,,2013-03-16 03:22:00,
2013-03-15 21:32:00,45.0,27.0,-100.00,North,359,9.0,23.0,48,0.00,,,0.00,0.000000,,2013-03-16 03:32:00,
2013-03-15 22:02:00,43.0,26.0,-100.00,NNW,345,5.0,17.0,50,0.00,,,0.00,0.000000,,2013-03-16 04:02:00,
2013-03-15 22:13:00,43.0,26.0,-100.00,NNW,345,5.0,17.0,50,0.00,,,0.00,0.000000,,2013-03-16 04:13:00,
2013-03-15 22:23:00,43.0,26.0,-100.00,NNW,345,5.0,17.0,50,0.00,,,0.00,0.000000,,2013-03-16 04:23:00,
2013-03-15 22:32:00,43.0,26.0,-100.00,NNW,345,5.0,17.0,50,0.00,,,0.00,0.000000,,2013-03-16 04:32:00,
2013-03-15 23:02:00,42.0,25.0,-100.00,North,349,7.0,16.0,50,0.00,,,0.00,0.000000,,2013-03-16 05:02:00,
2013-03-15 23:12:00,42.0,25.0,-100.00,North,349,7.0,16.0,50,0.00,,,0.00,0.000000,,2013-03-16 05:12:00,
2013-03-15 23:22:00,42.0,25.0,-100.00,North,349,7.0,16.0,50,0.00,,,0.00,0.000000,,2013-03-16 05:22:00,
2013-03-15 23:32:00,42.0,25.0,-100.00,North,349,7.0,16.0,50,0.00,,,0.00,0.000000,,2013-03-16 05:32:00,